This is the latest recevied weather packets stored in our database for station/object KO4ZGL-13. If no packets are shown the sender has not sent any weather packets the latest 10 day(s).
| Time | Temp. | Humidity | Pressure | Rain* | Wind** | Luminosity | Snow |
|---|---|---|---|---|---|---|---|
| 1788290546 | 35.56° C | 60% | 1018.2 hPa | 0 mm | - | 538 W/m² | - |
| 1788290241 | 35.56° C | 66% | 1018.4 hPa | 0 mm | - | 551 W/m² | - |
| 1788289937 | 35° C | 62% | 1018.2 hPa | 0 mm | - | 546 W/m² | - |
| 1788289633 | 35.56° C | 64% | 1018.2 hPa | 0 mm | - | 552 W/m² | - |
| 1788289332 | 35.56° C | 61% | 1018.3 hPa | 0 mm | - | 581 W/m² | - |
| 1788289031 | 35° C | 63% | 1018.2 hPa | 0 mm | - | 613 W/m² | - |
| 1788288729 | 35° C | 62% | 1018.5 hPa | 0 mm | - | 629 W/m² | - |
| 1788288425 | 35.56° C | 65% | 1018.3 hPa | 0 mm | - | 638 W/m² | - |
| 1788288120 | 35.56° C | 62% | 1018.3 hPa | 0 mm | - | 637 W/m² | - |
| 1788287810 | 35.56° C | 62% | 1018.5 hPa | 0 mm | - | 627 W/m² | - |
| 1788287509 | 35.56° C | 60% | 1018.5 hPa | 0 mm | - | 624 W/m² | - |
| 1788287206 | 34.44° C | 64% | 1018.6 hPa | 0 mm | - | 623 W/m² | - |
| 1788286905 | 35° C | 61% | 1018.5 hPa | 0 mm | - | 640 W/m² | - |
| 1788286599 | 35° C | 60% | 1018.8 hPa | 0 mm | - | 637 W/m² | - |
| 1788286293 | 35° C | 61% | 1018.9 hPa | 0 mm | - | 655 W/m² | - |
| 1788285988 | 35.56° C | 64% | 1018.8 hPa | 0 mm | - | 659 W/m² | - |
| 1788285682 | 35° C | 61% | 1018.6 hPa | 0 mm | - | 654 W/m² | - |
| 1788285381 | 33.89° C | 64% | 1018.9 hPa | 0 mm | - | 615 W/m² | - |
| 1788285076 | 33.89° C | 63% | 1018.9 hPa | 0 mm | - | 601 W/m² | - |
| 1788284772 | 33.89° C | 65% | 1018.8 hPa | 0 mm | - | 610 W/m² | - |
| 1788284468 | 35° C | 64% | 1018.9 hPa | 0 mm | - | 645 W/m² | - |
| 1788284167 | 35° C | 64% | 1019.1 hPa | 0 mm | - | 658 W/m² | - |
| 1788283863 | 34.44° C | 65% | 1018.8 hPa | 0 mm | - | 638 W/m² | - |
| 1788283559 | 34.44° C | 64% | 1018.9 hPa | 0 mm | - | 615 W/m² | - |
| 1788283257 | 33.89° C | 69% | 1019.1 hPa | 0 mm | - | 650 W/m² | - |
* Rain latest hour (hover to see other rain measurements)
** Current wind speed in m/s (hover to see current wind gust speed)